Погода в Чэнду

Китай     30°39′51″N   104°04′31″E
темп.,
°C
ветер,
м/с
пор.,
м/с
влажн.,
%
обл.,
%
осадки,
мм/ч
давл.,
гПа
погр.,
м
15 августа, пн
пн1523:00+27сз238372 1.7 100372
02:00+26з228893 4.7 100333
05:00+25зюз2288100 0.7 100248
08:00+26зюз1284100 0.8 1003104
11:00+32юз1161100 0.0 1004476
14:00+35зюз1150100 0.0 10021525
17:00+34з1255100 0.9 10001375
20:00+29з2375100 1.8 100163
16 августа, вт
вт1623:00+26ссз2488100 1.8 100397
02:00+26з1184100 2.6 100212
05:00+25зсз228262 0.0 100245
08:00+27зсз1174100 0.0 100386
11:00+32с1160100 0.0 1003558
14:00+34юв2251100 0.1 10001667
17:00+32ю2261100 0.4 999779
20:00+30сз117168 1.3 100016
17 августа, ср
ср1723:00+27сз238827 2.5 100250
02:00+26с1186100 3.0 100122
05:00+25ссз1186100 0.1 100014
08:00+26с1287100 0.7 100169
11:00+28ссз127499 0.2 1001219
14:00+34вюв2253100 0.8 9981449
17:00+33ю1257100 2.1 997980
20:00+28сз227973 4.6 99844
18 августа, чт
чт1823:00+26ссз2287100 2.3 100051
02:00+26ссз1185100 2.6 99931
05:00+26ссв1186100 1.3 99823
08:00+26с2488100 1.6 999142
11:00+26ссв2586100 0.2 1000211
14:00+28ссв248097 0.3 999242
17:00+30ссв3474100 2.8 998407
20:00+27ссв3586100 9.1 100072
19 августа, пт
пт1923:00+25с2695100 8.1 1002154
02:00+24ссз2697100 16.3 1002199
05:00+24с2597100 9.1 1002166
08:00+25с2391100 9.9 1003170
11:00+29св2372100 0.3 1003737
14:00+31св2265100 0.6 10011113
17:00+32св226499 0.2 9991193
20:00+27с2287100 3.8 100127